Preview of NWS' New Version of Forecast
This preview is not operational and should not be used for support decisions.

Regional Weather Roundup (RWR)

Issued by National Weather Service (NWS)

                            
000
ASUS42 KTBW 242215
RWRFL 
FLORIDA REGIONAL WEATHER ROUNDUP
NATIONAL WEATHER SERVICE TAMPA BAY RUSKIN FL
600 PM EDT MON JUN 24 2019

NOTE: "FAIR" INDICATES FEW OR NO CLOUDS BELOW 12,000 FEET WITH NO
SIGNIFICANT WEATHER AND/OR OBSTRUCTIONS TO VISIBILITY.

FLZ001>010-012>015-112-114-115-242300-
PANHANDLE FLORIDA
  
CITY           SKY/WX    TMP DP  RH WIND       PRES   REMARKS
PENSACOLA      FAIR      88  73  61 SW12      29.96F HX  95           
PENSACOLA NAS  PTSUNNY   85  76  74 SW9       29.97S                  
MILTON NAS     CLOUDY    87  75  67 S8        29.96F HX  96           
CRESTVIEW      FAIR      91  70  49 VRB7G17   29.97F HX  96           
DUKE FIELD     FAIR      91  69  48 SW13      29.96S HX  95           
VALPARAISO     FAIR      88  72  58 SW9       29.96F                  
MARY ESTHER    PTSUNNY   87  72  61 SW8       29.96F                  
TRI COUNTY     FAIR      80  74  81 SW5       29.97F                  
PANAMA CITY    FAIR      87  70  56 SW12      29.97F HAZE             
TYNDALL AFB    SUNNY     87  79  76 W13       29.98F HX 100           
APALACHICOLA   FAIR      88  77  69 W12       30.00R HX 100           

STATION/POSITION SKY/WX   TEMP    WIND        PRES    WAVE   SWELL
                          AIR SEA DIR/SP/G            HT/PER HT/PER
                          (F)     (DEG/KT/KT) (MB)    (FT/S) (FT/S)
30.1N   87.6W                                   N/A     3/ 6
29.2N   88.2W                     260/ 10/ 12 1016.1F   3/ 5   3/ 5
PANAMA CITY BEAC           84 87  270/ 11/ 13 1015.9F
TOWER C          NOT AVBL

$$
FLZ011-016>038-118-127-128-134-139-239-242300-
NORTH FLORIDA
  
CITY           SKY/WX    TMP DP  RH WIND       PRES   REMARKS
MARIANNA       FAIR      77  71  82 S5        29.95F                  
TALLAHASSEE    FAIR      96  75  50 W17       29.96S HX 108           
PERRY          PTSUNNY   90  79  71 SW16      30.00S HX 105           
LIVE OAK       SUNNY     91  72  52 S7        29.97F HX  98           
CROSS CITY     FAIR      89  76  64 SW9       30.00F HX 100           
LAKE CITY      FAIR      91  68  46 W13       29.98F HX  95           
GAINESVILLE    FAIR      91  71  51 SW14      30.01F HX  97           
PALATKA        FAIR      93  68  43 W8        29.98S HX  97           
MAYPORT NAS    FAIR      88  78  72 SE15      29.95F HX 101           
JACKSONVILLE   FAIR      96  68  39 NW12G21   29.94F HX 101           
JAX NAS        FAIR      99  67  35 SW13      29.96S HX 103           
JAX CECIL      MOSUNNY   97  68  38 W8        29.96F HX 101           
FERNANDINA BEA FAIR      87  78  74 SE14      29.96S HX 100           
ST AUGUSTINE   FAIR      88  78  72 SE13      29.97F HX 101           
PALM COAST     MOSUNNY   90  77  66 E8        29.97F HX 102           

STATION/POSITION SKY/WX   TEMP    WIND        PRES    WAVE   SWELL
                          AIR SEA DIR/SP/G            HT/PER HT/PER
                          (F)     (DEG/KT/KT) (MB)    (FT/S) (FT/S)
SHELL POINT      NOT AVBL
KEATON BEACH               85     230/ 15/ 17 1015.7F
CEDAR KEY                  86     250/  7/ 10 1016.4F
FERNANDINA                 91 85  120/  7/ 10 1015.1
30.7N   81.3W                 84                N/A     1/ 9
MAYPORT                    87 82  150/  7/ 12 1014.8F
31.4N   80.9W              84 84  180/ 10/ 12 1013.8F   1/10
ST AUGUSTINE               83 83  150/ 10/ 11 1014.9F

$$
FLZ040-043>046-052-053-057-058-063-144-242300-
INTERIOR CENTRAL FLORIDA
  
CITY           SKY/WX    TMP DP  RH WIND       PRES   REMARKS
OCALA          FAIR      91  71  51 W10       30.01S HX  97           
LEESBURG       FAIR      92  68  45 W9        30.00F HX  96           
SANFORD        FAIR      94  70  45 W9        29.98F HX 100           
ORLANDO EXEC   FAIR      96  66  37 NW12      29.99F HX  99           
ORLANDO INTL   FAIR      95  68  41 W7        29.98F HX  99           
KISSIMMEE      FAIR      94  72  48 W9        30.00F HX 102           
WINTER HAVEN   FAIR      95  70  44 W7        30.01F HX 101           
LAKELAND       MOSUNNY   91  73  55 W8        30.01F HX 100           
SEBRING        MOCLDY    95  69  42 NW9       29.99F HX 100           
OKEECHOBEE     FAIR      93  70  46 W5        29.97F HX  99           

$$
FLZ041-047-054-059-064-141-147-242300-
EAST CENTRAL FLORIDA
  
CITY           SKY/WX    TMP DP  RH WIND       PRES   REMARKS
ORMOND BEACH   MOSUNNY   91  77  62 E6        29.97F HX 105           
DAYTONA BEACH  FAIR      90  79  70 E6        29.98S HX 106           
DELAND         FAIR      95  68  41 W7        29.98F HX  99           
NEW SMYRNA BEA MOSUNNY   90  77  66 E8        30.00S HX 102           
JFK SPACE CTR  FAIR      89  69  50 E7        29.98F                  
TITUSVILLE     MOSUNNY  N/A N/A N/A NW6       29.99S                  
CAPE CANAVERAL FAIR      87  24  10 E6        29.98S                  
PATRICK AFB    FAIR      85  81  88 E8        29.99S HX 101           
MELBOURNE      FAIR      89  78  70 E7        29.99S HX 103           
VERO BEACH     FAIR      88  76  67 E8        29.99F HX  99           
FT PIERCE      FAIR      87  76  69 E8        29.98F HX  97           
STUART         PTSUNNY   88  79  74 E12       30.00F HX 102           

STATION/POSITION SKY/WX   TEMP    WIND        PRES    WAVE   SWELL
                          AIR SEA DIR/SP/G            HT/PER HT/PER
                          (F)     (DEG/KT/KT) (MB)    (FT/S) (FT/S)
28.5N   80.2W              85 85   80/  6/  8 1015.5F   1/ 9   2/ 9
28.9N   78.5W              84 84  310/  8/ 10 1016.0    3/ 5   2/ 5
TRIDENT PIER               84 76   70/  8/ 11 1017.1
28.4N   80.5W                 80                N/A     1/ 9
27.5N   80.2W                 83                N/A     1/ 9

$$
FLZ050-056-061-142-242-148-248-149-249-151-251-155-255-
160-260-242300-
WEST CENTRAL FLORIDA
  
CITY           SKY/WX    TMP DP  RH WIND       PRES   REMARKS
CRYSTAL RIVER  FAIR     N/A N/A N/A W7        30.02S                  
INVERNESS      FAIR      90  73  58 W3        30.02S HX  98           
BROOKSVILLE    FAIR      89  73  59 W9        30.02F HX  97           
CLEARWATER AIR FAIR      86  70  58 NW8       30.02S                  
ST PETE CLEARW NOT AVBL                                               
TAMPA INTL     FAIR      91  72  53 W8        30.01F HX  98           
PLANT CITY       N/A    N/A N/A N/A MISG        N/A                   
MACDILL AFB    FAIR      91  70  51 NW8       30.01F HX  96           
PETER O KNIGHT CLOUDY    91  72  52 W7        30.01F HX  98           
ST PETERSBURG  FAIR      90  73  57 W12       29.99F HX  98           
SARASOTA       FAIR      89  73  59 W9        30.00F HX  97           
VENICE         FAIR      90  77  66 W10       30.02F HX 102           

STATION/POSITION SKY/WX   TEMP    WIND        PRES    WAVE   SWELL
                          AIR SEA DIR/SP/G            HT/PER HT/PER
                          (F)     (DEG/KT/KT) (MB)    (FT/S) (FT/S)
27.3N   84.2W                 88                N/A     1/ 8
CLEARWATER BEACH           86 90  280/  6/  8 1017.0S
MIDDLE TAMPA BAY           86     290/  7/  9 1016.9F
VENICE                     86 86  300/  7/  8 1016.6F

$$
FLZ066-069-070-075>078-162-262-165-265-242300-
SOUTHWEST FLORIDA AND KEYS
  
CITY           SKY/WX    TMP DP  RH WIND       PRES   REMARKS
PUNTA GORDA    FAIR      92  67  43 W12       30.01F HX  95           
FT MYERS       FAIR      93  73  52 NW12      29.99F HX 102           
SOUTHWEST INTL FAIR      93  70  46 NW9       30.00S HX  99           
NAPLES         FAIR      91  76  61 NW14      30.00F HX 103           
IMMOKALEE      PTSUNNY   95  77  55 SW7       29.97S HX 109           
MARATHON       FAIR      90  76  63 S5        30.00F HX 101           
KEY WEST NAS   FAIR      90  76  63 E5        30.01S HX 101           
KEY WEST INTL  FAIR      87  75  67 SE5       30.01F HX  96           

STATION/POSITION SKY/WX   TEMP    WIND        PRES    WAVE   SWELL
                          AIR SEA DIR/SP/G            HT/PER HT/PER
                          (F)     (DEG/KT/KT) (MB)    (FT/S) (FT/S)
NAPLES                     89 92              1016.2F
DRY TORTUGAS               86      70/  4/  5 1016.6F
SAND KEY                   85                 1016.3F
SOMBRERO KEY               87                 1015.5F
LONG KEY                   90      20/  3/  6 1016.2

$$
FLZ067-068-071>074-168-172>174-242300-
SOUTHEAST FLORIDA 
  
CITY           SKY/WX    TMP DP  RH WIND       PRES   REMARKS
W PALM BEACH   PTSUNNY   89  75  63 SE10      30.00S THUNDER HX  99   
BOCA RATON     MOSUNNY   91  75  59 SE12      29.99F HX 102           
FT LAUDER-EXEC FAIR      91  72  53 SE9       29.99F HX  98           
FT LAUDERDALE  PTSUNNY   87  71  58 S5        29.99S                  
POMPANO BEACH  FAIR      91  72  53 SE9       29.99F HX  98           
PEMBROKE PINES FAIR      91  69  48 S6        30.01F HX  96           
OPA LOCKA      FAIR      88  71  57 S7        30.00S                  
MIAMI          PTSUNNY   85  70  60 S6        30.00F                  
WEST KENDALL   FAIR      82  76  81 S6        30.01S                  
HOMESTEAD      LGT RAIN  86  75  70 CALM      30.01S HX  95           

STATION/POSITION SKY/WX   TEMP    WIND        PRES    WAVE   SWELL
                          AIR SEA DIR/SP/G            HT/PER HT/PER
                          (F)     (DEG/KT/KT) (MB)    (FT/S) (FT/S)
PORT EVERGLADES            81     180/  5/  7 1016.0
VIRGINIA KEY               86 90  130/  5/  5 1015.6F
LAKE WORTH                 86 83  150/  8/  8 1016.9
FOWEY ROCKS                88 85  180/  4/  5 1016.5F
SETTLEMENT POINT           88      20/  1/  2 1016.4F

$$